Wetbulb
69.75 68.02 66.44 66.58 67.86 68.42 69.27 66.77 68.61 70.42 69.46 70.33 72.77 71.95 70.66 69.20 70.02 70.77 70.67 69.87 69.79 69.88
69.56 69.03 66.71 66.19 67.63 68.37 69.23 67.81 68.65 69.78 69.82 68.52 70.40 70.93 72.04 71.28 71.20 71.78 71.60 71.52 71.11 70.62
70.61 70.57 69.21 68.61 67.99 68.21 68.41 67.81 68.17 69.14 68.73 68.15 69.14 69.44 71.64 72.09 72.80 71.45 71.26 71.84 71.55 70.93
71.94 70.76 68.21 68.47 68.79 68.17 66.22 66.33 65.75 67.23 67.19 68.57 68.22 68.21 72.32 72.14 72.22 71.65 71.37 71.33 70.77 70.72
72.15 70.13 68.07 67.45 68.01 67.54 65.93 64.73 63.96 65.71 66.71 67.49 67.46 66.71 70.58 71.87 72.88 71.93 71.00 71.14 70.60 70.83
72.27 70.34 69.08 67.98 67.90 67.47 66.24 65.24 64.54 65.38 66.35 66.49 65.91 66.27 69.21 71.48 71.72 71.94 71.46 71.85 70.93 70.24
73.00 71.55 70.30 69.19 68.13 67.63 66.94 66.04 64.71 64.76 65.11 64.96 65.21 67.69 70.93 72.77 72.18 72.04 72.40 71.98 70.91 70.19
73.23 73.74 71.86 69.85 68.62 68.10 67.36 67.13 66.47 64.91 64.69 64.82 66.93 71.05 72.94 72.72 72.36 70.93 70.22 69.81 69.92 69.43
72.90 73.07 72.74 71.62 69.49 68.50 67.88 67.63 67.50 67.92 68.54 69.21 72.32 71.46 70.57 72.76 72.10 70.77 68.98 67.65 67.74 66.46
72.92 72.87 72.74 72.39 71.74 70.14 69.20 68.64 69.09 70.05 71.05 71.90 72.77 68.44 68.98 70.47 71.25 69.47 67.43 67.11 67.40 65.26
72.32 72.59 72.88 72.54 72.02 72.16 72.51 71.09 70.58 71.60 72.46 72.62 71.88 66.79 66.93 69.09 70.39 67.97 67.36 67.43 66.93 62.34
72.36 72.09 71.97 72.23 72.53 72.39 72.85 72.77 72.60 73.02 72.93 72.35 69.81 64.45 65.35 68.75 68.28 67.86 67.09 66.39 64.52 60.97
72.48 72.44 71.82 72.21 72.56 72.91 72.67 72.99 73.36 73.21 73.40 69.77 69.05 62.66 62.66 67.47 68.51 66.20 63.72 62.00 60.76 61.60
72.82 72.70 72.84 72.65 72.40 73.60 73.23 72.45 72.78 72.76 71.71 69.66 68.06 64.45 60.36 62.80 68.87 67.08 62.26 60.01 58.30 58.94
MSLP
1013.54 1013.92 1014.33 1014.83 1015.32 1015.45 1015.37 1015.33 1015.67 1015.89 1015.82 1015.55 1015.95 1016.17 1016.74 1017.13 1017.35 1017.54 1017.78 1017.99 1018.04 1018.01
1013.25 1013.57 1014.04 1014.50 1014.75 1014.87 1015.07 1015.35 1015.63 1015.65 1016.09 1015.79 1015.90 1016.22 1016.80 1017.04 1017.11 1017.33 1017.41 1017.51 1017.51 1017.69
1012.80 1013.08 1013.60 1014.20 1014.56 1014.76 1014.84 1015.30 1015.72 1015.82 1016.03 1016.25 1016.31 1016.30 1016.57 1016.63 1016.77 1016.92 1017.11 1017.14 1017.26 1017.02
1012.46 1012.81 1013.40 1013.83 1014.11 1014.45 1014.90 1015.32 1015.76 1015.80 1016.02 1016.27 1016.43 1016.40 1016.47 1016.46 1016.60 1016.81 1016.92 1016.87 1017.01 1017.17
1012.04 1012.70 1013.26 1013.65 1013.74 1014.15 1014.78 1015.25 1015.45 1015.58 1015.86 1016.09 1016.36 1016.26 1016.44 1016.27 1016.51 1016.47 1016.79 1016.65 1016.85 1017.02
1011.70 1012.38 1012.95 1013.42 1013.56 1013.90 1014.67 1015.15 1015.44 1015.58 1015.63 1015.93 1015.83 1016.17 1016.20 1016.19 1016.32 1016.36 1016.44 1016.51 1016.69 1016.90
1011.06 1011.69 1012.42 1013.13 1013.54 1013.73 1014.10 1014.92 1015.16 1015.31 1015.36 1015.53 1015.62 1015.81 1015.66 1015.84 1016.02 1016.31 1016.36 1016.38 1016.57 1016.76
1010.35 1011.13 1012.08 1012.84 1013.31 1013.52 1013.83 1014.04 1014.66 1014.99 1014.98 1015.08 1015.23 1015.22 1015.38 1015.51 1015.87 1016.15 1016.41 1016.62 1016.84 1016.99
1010.11 1010.75 1011.44 1012.16 1012.91 1013.27 1013.66 1014.00 1014.31 1014.54 1014.70 1014.81 1014.87 1015.07 1015.24 1015.48 1015.77 1016.20 1016.60 1016.96 1017.25 1017.29
1009.62 1010.19 1010.79 1011.48 1012.24 1012.67 1013.14 1013.51 1013.87 1014.10 1014.46 1014.58 1014.68 1014.91 1015.15 1015.19 1015.79 1016.28 1016.66 1017.08 1017.33 1017.38
1009.03 1009.58 1010.31 1010.95 1011.46 1011.86 1012.34 1012.82 1013.27 1013.62 1013.84 1014.18 1014.47 1014.72 1015.02 1015.35 1015.74 1016.17 1016.72 1017.05 1017.22 1017.49
1008.28 1009.00 1009.66 1010.16 1010.75 1011.23 1011.73 1012.12 1012.37 1012.77 1013.39 1013.87 1014.27 1014.48 1014.63 1015.21 1015.68 1016.29 1016.86 1017.16 1017.45 1017.57
1007.50 1008.13 1008.65 1009.07 1009.69 1010.30 1010.84 1011.33 1011.68 1012.24 1012.77 1013.14 1013.76 1014.28 1014.67 1014.99 1015.57 1016.44 1016.96 1017.31 1017.52 1017.65
1006.75 1007.13 1007.49 1008.33 1009.08 1009.64 1010.26 1010.84 1011.36 1011.95 1012.42 1012.92 1013.44 1013.98 1014.40 1014.97 1015.41 1015.99 1016.73 1017.23 1017.60 1017.83
Wind_Speed
8 6 5 6 5 6 6 4 4 5 6 5 3 4 4 3 4 5 4 5 5 3
7 8 7 7 5 4 4 2 4 5 4 2 5 4 5 4 5 5 4 5 4 3
9 8 7 6 7 6 5 3 4 3 3 1 2 3 4 4 4 4 3 4 5 4
9 8 7 7 7 6 4 4 4 5 5 5 5 2 4 3 3 3 4 3 4 4
10 8 7 6 7 5 5 3 4 5 7 6 6 1 4 3 4 4 4 3 3 2
11 11 10 8 7 5 5 5 5 5 7 7 5 5 5 5 4 3 3 4 4 2
12 12 11 8 7 6 6 7 7 7 7 7 6 6 5 5 4 4 4 4 3 2
11 10 9 9 9 7 6 5 5 6 6 5 5 4 5 5 5 6 5 4 4 3
9 9 10 9 8 7 7 6 5 6 6 6 4 6 7 6 6 5 5 5 4 3
11 11 11 9 9 10 10 7 8 7 5 7 5 7 7 8 5 6 5 5 5 3
12 13 11 11 11 10 9 11 9 9 9 7 5 9 9 9 7 6 5 6 5 5
14 13 12 13 12 9 8 8 8 7 8 7 6 9 10 10 7 6 5 4 5 5
15 14 14 13 13 9 8 9 8 8 7 8 7 7 7 7 5 6 4 4 4 4
15 16 15 11 6 8 9 6 7 7 6 6 7 8 10 9 6 6 5 4 3 2
Wind_Direction
169 177 184 180 173 197 206 213 131 162 192 145 181 164 180 181 200 196 211 232 218 223
172 167 185 190 196 196 215 177 146 189 196 106 149 163 190 202 213 202 207 235 234 234
181 178 184 170 208 206 214 161 165 182 109 237 227 198 210 205 219 203 220 227 215 226
169 175 171 190 205 206 143 184 158 201 173 214 233 206 238 228 212 187 215 229 199 248
159 159 171 197 222 195 164 184 196 206 184 204 222 198 263 221 232 224 216 222 169 235
162 171 183 188 212 201 161 173 194 198 186 202 217 219 238 234 235 237 215 153 153 183
175 178 182 176 190 200 193 172 192 208 206 211 216 223 224 217 192 182 166 150 135 176
179 172 169 173 185 191 198 207 189 210 228 229 227 232 218 176 160 155 139 106 100 66
168 159 179 181 177 176 192 201 198 218 223 225 228 221 194 166 164 152 135 126 119 92
175 179 184 182 175 186 188 180 206 218 212 234 221 183 194 191 145 143 150 157 161 118
182 190 184 182 194 191 177 189 195 207 211 215 191 183 191 179 146 140 161 173 150 138
188 190 187 187 192 196 183 187 191 192 195 193 186 200 177 155 141 148 150 121 129 150
190 191 193 196 189 178 186 195 190 188 176 185 183 192 170 155 141 137 141 111 124 150
189 192 196 184 170 177 181 174 184 175 172 176 182 178 176 180 157 160 153 155 155 185